Royse City's Hourly Summary for Friday, March 17, 2017
Hour Temp
(f)
RH
(%)
Solar Rad.
(MJ/m2)
Rainfall
(in)
Wind
(mph)
3/17/2017 12:00 AM 65 82 0 0 3.48
3/17/2017 1:00 AM 65 82 0 0 4.74
3/17/2017 2:00 AM 63 87 0 0 3.64
3/17/2017 3:00 AM 64 85 0 0 4.22
3/17/2017 4:00 AM 65 82 0 0 3.61
3/17/2017 5:00 AM 66 79 0 0 4.17
3/17/2017 6:00 AM 66 79 0 0 4.58
3/17/2017 7:00 AM 66 80 0 0 3.64
3/17/2017 8:00 AM 66 79 0.02 0 3.57
3/17/2017 9:00 AM 66 78 0.17 0 3.73
3/17/2017 10:00 AM 68 75 0.43 0 4.65
3/17/2017 11:00 AM 70 69 1.12 0 5.43
3/17/2017 12:00 PM 71 69 0.97 0 5.43
3/17/2017 1:00 PM 71 69 0.85 0 5.44
3/17/2017 2:00 PM 71 69 0.77 0 5.41
3/17/2017 3:00 PM 71 70 0.74 0 4.99
3/17/2017 4:00 PM 71 69 0.65 0 4.8
3/17/2017 5:00 PM 73 64 0.84 0 4.13
3/17/2017 6:00 PM 74 60 0.48 0 4.15
3/17/2017 7:00 PM 74 61 0.18 0 2.71
3/17/2017 8:00 PM 73 61 0.01 0 1.04
3/17/2017 9:00 PM 72 64 0 0 0.39
3/17/2017 10:00 PM 71 65 0 0 0.36
3/17/2017 11:00 PM 70 69 0 0 0.01
Data Summary 68 72 7.23 0.00 3.68